Regional Weather Roundup
Issued by NWS Wilmington, NC

Current Version | Previous Version | Text Only | Print | Product List | Glossary On
Versions: 1 2 3 4 5 6 7 8 9 10 11 12 13 14 15 16 17 18 19 20 21 22 23 24 25 26 27 28 29 30 31 32 33 34 35 36 37 38 39 40 41 42 43 44 45 46 47 48 49 50
000
ASUS42 KILM 012010
RWRILM
RWRILM
REGIONAL HOURLY WEATHER ROUNDUP
NATIONAL WEATHER SERVICE WILMINGTON NC
300 PM EST SUN MAR 01 2015

NOTE: "FAIR" INDICATES FEW OR NO CLOUDS BELOW 12,000 FEET WITH NO
SIGNIFICANT WEATHER AND/OR OBSTRUCTIONS TO VISIBILITY.

...............WFO WILMINGTON COUNTY WARNING AREA...............

......COASTAL NC AND SC COUNTIES......

CITY           SKY/WX    TMP DP  RH WIND       PRES   REMARKS
WILMINGTON     LGT RAIN  52  47  83 W6        30.39S
SOUTHPORT      DRIZZLE   54  50  87 N6        30.39S
N MYRTLE BEACH CLOUDY    46  43  89 N9        30.39F
MYRTLE BEACH   LGT RAIN  45  41  87 N10       30.43F FOG

......INLAND NC AND SC COUNTIES.......

CITY           SKY/WX    TMP DP  RH WIND       PRES   REMARKS
LUMBERTON      CLOUDY    39  35  86 NE3       30.42F
ELIZABETHTOWN  DRIZZLE   38  38  97 CALM      30.42F
WHITEVILLE     DRIZZLE   40  38  94 N3        30.41F
FLORENCE       LGT RAIN  40  37  89 N7        30.42F FOG
DARLINGTON     CLOUDY    37  34  87 NE6       30.44F WCI  33

....................REST OF NORTH CAROLINA......................

.........EASTERN NC.........

CITY           SKY/WX    TMP DP  RH WIND       PRES   REMARKS
CAPE HATTERAS  CLOUDY    50  46  86 SE8       30.41F
JACKSONVILLE   PTSUNNY   48  39  71 W3        30.41F
MOREHEAD CITY  CLOUDY    62  55  77 S12       30.38F
KENANSVILLE    CLOUDY    39  38  97 W5        30.44S FOG
NEW BERN       CLOUDY    49  46  90 NE5       30.40F
ELIZABETH CITY LGT RAIN  44  42  93 N3        30.40F

.........CENTRAL NC.........

CITY           SKY/WX    TMP DP  RH WIND       PRES   REMARKS
RALEIGH DURHAM LGT RAIN  34  30  86 VRB3      30.44S FOG
ROCKY MOUNT    LGT RAIN  34  33  96 CALM      30.43R FOG
ROANOKE RAPIDS NOT AVBL
FAYETTEVILLE   CLOUDY    36  34  92 N5        30.43F WCI  32
HOFFMAN        LGT RAIN  37  36  96 N3        30.46S

.........WESTERN NC.........

CITY           SKY/WX    TMP DP  RH WIND       PRES   REMARKS
CHARLOTTE      CLOUDY    37  34  89 NW5       30.42F FOG     WCI  33
GREENSBORO     CLOUDY    34  32  92 CALM      30.40F FOG
HICKORY        NOT AVBL
BOONE          NOT AVBL
ASHEVILLE      NOT AVBL

.....................REST OF SOUTH CAROLINA.....................

.........EASTERN SC.........

CITY           SKY/WX    TMP DP  RH WIND       PRES   REMARKS
CHARLESTON     LGT RAIN  44  43  96 N5        30.40F FOG
BEAUFORT MCAS  LGT RAIN  46  44  93 NW6       30.40F FOG
HILTON HEAD    CLOUDY    46  46 100 N7        30.40F

.........CENTRAL SC.........

CITY           SKY/WX    TMP DP  RH WIND       PRES   REMARKS
COLUMBIA       CLOUDY    41  37  86 NW3       30.42F
ORANGEBURG     CLOUDY    42  37  82 CALM      30.42F
SUMTER SHAW    DRIZZLE   39  37  93 NE5       30.40F

.........WESTERN SC.........

CITY           SKY/WX    TMP DP  RH WIND       PRES   REMARKS
GREENVILLE     NOT AVBL
ROCK HILL      LGT RAIN  38  36  92 N5        30.42F FOG     WCI  34
ANDERSON       CLOUDY    43  41  93 CALM      30.41F
CLEMSON        NOT AVBL
GREENWOOD      LGT RAIN  40  38  93 CALM      30.42F FOG


...................COASTAL AND OFFSHORE REPORTS..................

................LOCAL PIERS AND NC RESERVE................


STATION/POSITION TIME  SKY/WX   TEMP    WIND        PRES    VSBY
                                AIR SEA DIR/SP/G
                 (UTC)          (F)     (DEG/KT/KT) (MB)    (MI)
JOHNY MRCER PIER 2000            53 48   40/  4/  4 1028.1F
NC RESRV MASNBRO 1900            54      20/  3     1029.0S
OCEAN CREST PIER 2000            53 47  330/  7/  9 1028.1F
SPRINGMAID  PIER 2000            44 45  320/  9/ 11 1029.3F


................COASTAL AND OFFSHORE BUOYS................


STATION/POSITION TIME  SKY/WX   TEMP    WIND        PRES    VSBY
                                AIR SEA DIR/SP/G
                 (UTC)          (F)     (DEG/KT/KT) (MB)    (MI)
DIMNDSHOAL 41025 NOT AVBL
CAPE LOOKOUT     1900            57     150/  9/ 10 1029.0F
ONSLOW BAY 41036 NOT AVBL
5 WRITEBCH 41038 NOT AVBL
MASONBORO  41110 2000               46                N/A
WVE H/P(F/S)=  4/ 8 WND WVE H/P(F/S)=  5/ 8

WILM HARBR 41108 2000               47                N/A
WVE H/P(F/S)=  4/ 6 WND WVE H/P(F/S)=  3/ 6

27WRITEBCH 41037 NOT AVBL
FRYING PAN 41013 2000            66 61  170/ 16/ 17 1028.6F
WVE H/P(F/S)=  6/ 6 WND WVE H/P(F/S)=  5/ 6 SWL H/P/D(F/S/D)=  3/ 90/ 8

SUNST NRSH 41024 1900            47     330/ 10/ 14   N/A
CAPRS NRSH 41029 NOT AVBL
EDISTO     41004 2000            55 68  350/ 12/ 16 1028.0F
WVE H/P(F/S)=  8/ 8 WND WVE H/P(F/S)=  5/ 6 SWL H/P/D(F/S/D)=  7/ 8



..........OFFSHORE BUOYS BEYOND 100 NM OFFSHORE...........
.....IN A TRIANGLE---HAT TO BERMUDA TO BAHAMAS TO HAT.....


STATION/POSITION TIME  SKY/WX   TEMP    WIND        PRES    VSBY
                                AIR SEA DIR/SP/G
                 (UTC)          (F)     (DEG/KT/KT) (MB)    (MI)
150E HAT   41001 NOT AVBL
W BERMUDA  41048 1858            66 68   70/ 19/ 21 1030.2F
WVE H/P(F/S)=  8/ 8 WND WVE H/P(F/S)=  8/ 8

ATLANTIC S 41049 1923            73 74   60/ 10/ 12 1025.0F
WVE H/P(F/S)=  6/ 9 WND WVE H/P(F/S)=  2/ 5 SWL H/P/D(F/S/D)=  5/100/ 9

E BAHAMAS  41046 1859            77 78   80/ 16/ 17 1022.7
WVE H/P(F/S)=  6/ 9 WND WVE H/P(F/S)=  5/ 7 SWL H/P/D(F/S/D)=  5/100/ 9

NE BAHAMAS 41047 1949            72 74   60/ 14/ 17 1026.4F
WVE H/P(F/S)=  9/10 WND WVE H/P(F/S)=  5/ 7 SWL H/P/D(F/S/D)=  8/ 20/10

120E CANVRL41010 2000            72 75  100/ 17/ 19 1026.8F
WVE H/P(F/S)=  8/ 9 WND WVE H/P(F/S)=  5/ 7 SWL H/P/D(F/S/D)=  7/ 60/ 9


END


USA.gov is the U.S. government's official web portal to all federal, state and local government web resources and services.